Regional Weather Roundup
Issued by NWS

Home | Current Version | Previous Version | Graphics & Text | Print | Product List | Glossary On
Versions: 1 2 3 4 5 6 7 8 9 10 11 12 13 14 15 16 17 18 19 20 21 22 23 24 25 26 27 28 29 30 31 32 33 34 35 36 37 38 39 40 41 42 43 44 45 46 47 48 49 50
149
ASUS43 KLOT 270903
RWRIL

ILLINOIS REGIONAL WEATHER ROUNDUP
NATIONAL WEATHER SERVICE CHICAGO/ROMEOVILLE IL
300 AM CST MON FEB 27 2017

NOTE: "FAIR" INDICATES FEW OR NO CLOUDS BELOW 12,000 FEET WITH NO
SIGNIFICANT WEATHER AND/OR OBSTRUCTIONS TO VISIBILITY.

* THESE STATIONS ARE NOT UNDER NWS QUALITY CONTROL. THEY ALSO MAY NOT
  REPORT WEATHER SUCH AS PRECIPITATION OR FOG.

ILZ001-002-007-009-015-016-024-271000-
NORTHWEST ILLINOIS

CITY           SKY/WX    TMP DP  RH WIND       PRES   REMARKS
MOLINE         CLEAR     26  23  88 SE5       30.07S WCI  20
STERLING*      CLEAR     30  29  96 CALM      30.09
$$

ILZ003-004-008-010-011-017-018-271000-
NORTH CENTRAL ILLINOIS

CITY           SKY/WX    TMP DP  RH WIND       PRES   REMARKS
ROCKFORD       MOCLDY    28  24  85 CALM      30.10S
FREEPORT*      CLOUDY    29  26  88 CALM      30.09S
ROCHELLE*      CLEAR     30  29  98 S6        30.09S WCI  24
DE KALB*       MOCLDY    31  29  93 SW5       30.09R WCI  26
PERU*          CLOUDY    35  27  73 SW8       30.10S WCI  28
$$

ILZ005-006-012>014-019>023-271000-
NORTHEAST ILLINOIS

CITY           SKY/WX    TMP DP  RH WIND       PRES   REMARKS
CHICAGO-OHARE  PTCLDY    33  24  69 W3        30.09R
CHICAGO-MIDWAY PTCLDY    36  24  62 S3        30.11R
AURORA         PTCLDY    32  25  75 SW6       30.10S WCI  26
LANSING*       MOCLDY    30  27  88 SW5       30.13R WCI  25
JOLIET*        PTCLDY    33  28  79 S3        30.12R
WAUKEGAN       PTCLDY    27  25  92 CALM      30.08S
DUPAGE AIRPORT PTCLDY    30  23  75 CALM      30.09R
KANKAKEE*      CLEAR     29  24  82 CALM      30.14S
WHEELING       CLEAR     31  25  78 S3        30.11R
MORRIS*        PTCLDY    31  25  81 CALM      30.11R
ROMEOVILLE*    MOCLDY    31  28  88 SW6       30.12R WCI  25
NORTHERLY ISL    N/A     37  24  60 S2          N/A
$$

LMZ740>746-271000-
SOUTHERN LAKE MICHIGAN

STATION/POSITION SKY/WX   TEMP    WIND        PRES    VSBY  WAVE
                          AIR SEA DIR/SP/G                  HT/PER
                          (F)     (DEG/KT/KT) (MB)    (MI)  (FT/S)
HARRISON CRIB              41     230/ 17/ 20   N/A
BURNHAM HARBOR             37     240/  5/  7   N/A
CALUMET HARBOR             36     210/  5/  7 1019.0R
BURNS HARBOR               38     210/ 12/ 18 1020.3R
MICHIGAN CITY              37     190/ 14/ 17   N/A
$$

ILZ025>027-034>036-040-047-049-050-058-095>099-271000-
WEST-CENTRAL ILLINOIS

CITY           SKY/WX    TMP DP  RH WIND       PRES   REMARKS
QUINCY         CLOUDY    33  31  92 SE6       30.08R WCI  28
GALESBURG*     PTCLDY    27  24  89 CALM        N/A
MACOMB*        CLEAR     28  26  93 S5        30.10F WCI  23
JACKSONVILLE*  CLOUDY    36  32  87 SE3       30.10S
PITTSFIELD*    CLOUDY    33  32  95 E3        30.10S
$$

ILZ028>032-037-038-041>044-048-051>054-059>061-271000-
CENTRAL ILLINOIS

CITY           SKY/WX    TMP DP  RH WIND       PRES   REMARKS
PONTIAC        CLEAR     32  30  91 S3        30.13S
BLOOMINGTON    CLEAR     28  26  92 SW9       30.12S WCI  19
DECATUR        CLOUDY    34  29  82 E3        30.13S
PEORIA         CLEAR     30  25  81 CALM      30.11F
LINCOLN*       PTCLDY    27  26  95 CALM      30.12F
SPRINGFIELD    MOCLDY    34  30  85 E3        30.11F
TAYLORVILLE    CLOUDY    38  35  87 CALM      30.11F
$$

ILZ033-039-045-046-055>057-062-063-271000-
EAST-CENTRAL ILLINOIS

CITY           SKY/WX    TMP DP  RH WIND       PRES   REMARKS
CHAMPAIGN      CLOUDY    34  26  72 CALM      30.14S
RANTOUL*       PTCLDY    31  25  79 CALM      30.14S
MATTOON        CLOUDY    41  35  79 CALM      30.12F
PARIS*         CLOUDY    39  35  84 CALM      30.15F
$$

ILZ079-100>102-271000-
SOUTHWEST ILLINOIS

CITY           SKY/WX    TMP DP  RH WIND       PRES   REMARKS
ALTON          CLOUDY    39  35  85 E5        30.09F
BELLEVILLE     CLOUDY    41  37  83 E5        30.08F
CAHOKIA*       CLOUDY    41  35  79 SE3       30.09F
SPARTA*        CLOUDY    42  32  65 SE6       30.10F
$$

ILZ064>066-069>071-074>076-080>082-084>086-088>090-092>094-271000-
SOUTH-CENTRAL ILLINOIS

CITY           SKY/WX    TMP DP  RH WIND       PRES   REMARKS
CARBONDALE     CLOUDY    41  37  86 SE8       30.11F
CAIRO*         DRIZZLE   45  41  88 E6        30.11F
EFFINGHAM*     CLOUDY    40  36  84 E5        30.15F
MARION         DRIZZLE   41  37  87 E5        30.13F
MT. VERNON     CLOUDY    44  34  67 SE5       30.13F
CENTRALIA*     CLOUDY    43  35  72 SE3       30.11F
SALEM*         CLOUDY    44  33  66 E3        30.13S
METROPOLIS*    LGT RAIN  45  41  86 CALM      30.14S
$$

ILZ067-068-072-073-078-083-087-091-271000-
SOUTHEAST ILLINOIS

CITY           SKY/WX    TMP DP  RH WIND       PRES   REMARKS
LAWRENCEVILLE  CLOUDY    42  36  79 E3        30.18R
FLORA*         CLOUDY    42  37  81 SE5       30.15F
FAIRFIELD*     CLOUDY    44  35  70 CALM      30.14F
HARRISBURG*    LGT RAIN  42  36  79 E3        30.15F
ROBINSON*      CLOUDY    40  37  89 SE3       30.17S
CARMI*         DRIZZLE   43  35  74 CALM      30.15F
$$

ABBREVIATIONS USED IN REMARKS
   TC - TEMPERATURE IN CELSIUS
  WCI - WIND CHILL INDEX
   HX - HEAT INDEX
  VSB - VISIBILITY
$$





USA.gov is the U.S. government's official web portal to all federal, state and local government web resources and services.